Time,TemperatureF,DewpointF,PressureIn,WindDirection,WindDirectionDegrees,WindSpeedMPH,WindSpeedGustMPH,Humidity,HourlyPrecipIn,Conditions,Clouds,dailyrainin,SolarRadiationWatts/m^2,SoftwareType,DateUTC
2013-08-23 00:00:00,69.9,67.5,30.02,ESE,109,0.0,0.0,92,0.00,,,0.00,0,Wunderground v.1.15,2013-08-23 05:00:00,
2013-08-23 00:10:00,69.9,67.2,30.02,ESE,109,0.0,0.0,91,0.00,,,0.00,0,Wunderground v.1.15,2013-08-23 05:10:00,
2013-08-23 00:20:00,69.8,67.1,30.02,ESE,109,0.0,0.0,91,0.00,,,0.00,0,Wunderground v.1.15,2013-08-23 05:20:00,
2013-08-23 00:30:00,69.8,67.1,30.02,ESE,109,0.0,0.0,91,0.00,,,0.00,0,Wunderground v.1.15,2013-08-23 05:30:00,
2013-08-23 00:40:00,70.1,67.3,30.01,ESE,109,0.0,0.0,91,0.00,,,0.00,0,Wunderground v.1.15,2013-08-23 05:40:00,
2013-08-23 00:50:00,70.3,67.5,30.01,ESE,109,0.0,0.0,91,0.00,,,0.00,0,Wunderground v.1.15,2013-08-23 05:50:00,
2013-08-23 01:00:00,70.1,67.0,30.01,ESE,109,0.0,0.0,90,0.00,,,0.00,0,Wunderground v.1.15,2013-08-23 06:00:00,
2013-08-23 01:10:00,70.3,67.2,30.01,ESE,109,0.0,0.0,90,0.00,,,0.00,0,Wunderground v.1.15,2013-08-23 06:10:00,
2013-08-23 01:20:00,70.4,67.3,30.01,ESE,109,0.0,0.0,90,0.00,,,0.00,0,Wunderground v.1.15,2013-08-23 06:20:00,
2013-08-23 01:30:00,70.3,66.9,30.01,ESE,109,0.0,0.0,89,0.00,,,0.00,0,Wunderground v.1.15,2013-08-23 06:30:00,
2013-08-23 01:40:00,69.9,66.8,30.01,ESE,109,0.0,0.0,90,0.00,,,0.00,0,Wunderground v.1.15,2013-08-23 06:40:00,
2013-08-23 01:50:00,69.4,66.3,30.01,ESE,109,0.0,0.0,90,0.00,,,0.00,0,Wunderground v.1.15,2013-08-23 06:50:00,
2013-08-23 02:00:00,69.4,66.7,30.01,ESE,109,0.0,0.0,91,0.00,,,0.00,0,Wunderground v.1.15,2013-08-23 07:00:00,
2013-08-23 02:10:00,69.3,66.6,30.01,ESE,109,0.0,0.0,91,0.00,,,0.00,0,Wunderground v.1.15,2013-08-23 07:10:00,
2013-08-23 02:20:00,69.3,66.6,30.01,ESE,109,0.0,0.0,91,0.00,,,0.00,0,Wunderground v.1.15,2013-08-23 07:20:00,
2013-08-23 02:30:00,69.3,66.6,30.01,ESE,109,0.0,0.0,91,0.00,,,0.00,0,Wunderground v.1.15,2013-08-23 07:30:00,
2013-08-23 02:40:00,69.4,67.0,30.01,ESE,109,0.0,0.0,92,0.00,,,0.00,0,Wunderground v.1.15,2013-08-23 07:40:00,
2013-08-23 02:50:00,69.4,67.0,30.01,ESE,109,0.0,0.0,92,0.00,,,0.00,0,Wunderground v.1.15,2013-08-23 07:50:00,
2013-08-23 03:00:00,69.6,67.2,30.01,ESE,109,0.0,0.0,92,0.00,,,0.00,0,Wunderground v.1.15,2013-08-23 08:00:00,
2013-08-23 03:10:00,69.6,67.2,30.01,ESE,109,0.0,0.0,92,0.00,,,0.00,0,Wunderground v.1.15,2013-08-23 08:10:00,
2013-08-23 03:20:00,69.6,67.2,30.01,ESE,109,0.0,0.0,92,0.00,,,0.00,0,Wunderground v.1.15,2013-08-23 08:20:00,
2013-08-23 03:30:00,69.4,67.0,30.01,ESE,109,0.0,0.0,92,0.00,,,0.00,0,Wunderground v.1.15,2013-08-23 08:30:00,
2013-08-23 03:40:00,69.3,66.9,30.01,ESE,109,0.0,0.0,92,0.00,,,0.00,0,Wunderground v.1.15,2013-08-23 08:40:00,
2013-08-23 03:50:00,69.4,67.0,30.01,ESE,109,0.0,0.0,92,0.00,,,0.00,0,Wunderground v.1.15,2013-08-23 08:50:00,
2013-08-23 04:00:00,69.4,67.0,30.01,ESE,109,0.0,0.0,92,0.00,,,0.00,0,Wunderground v.1.15,2013-08-23 09:00:00,
2013-08-23 04:10:00,69.3,66.9,30.01,ESE,109,0.0,0.0,92,0.00,,,0.00,0,Wunderground v.1.15,2013-08-23 09:10:00,
2013-08-23 04:20:00,69.3,66.9,30.01,ESE,109,0.0,0.0,92,0.00,,,0.00,0,Wunderground v.1.15,2013-08-23 09:20:00,
2013-08-23 04:30:00,69.4,67.0,30.01,ESE,109,0.0,0.0,92,0.00,,,0.00,0,Wunderground v.1.15,2013-08-23 09:30:00,
2013-08-23 04:40:00,69.3,66.9,30.01,ESE,109,0.0,0.0,92,0.00,,,0.00,0,Wunderground v.1.15,2013-08-23 09:40:00,
2013-08-23 04:50:00,69.1,66.7,30.01,ESE,109,0.0,0.0,92,0.00,,,0.00,0,Wunderground v.1.15,2013-08-23 09:50:00,
2013-08-23 05:00:00,69.1,66.7,30.01,ESE,109,0.0,0.0,92,0.00,,,0.00,0,Wunderground v.1.15,2013-08-23 10:00:00,
2013-08-23 05:10:00,68.9,66.5,30.01,ESE,109,0.0,0.0,92,0.00,,,0.00,0,Wunderground v.1.15,2013-08-23 10:10:00,
2013-08-23 05:20:00,68.8,66.4,30.00,ESE,109,0.0,0.0,92,0.00,,,0.00,0,Wunderground v.1.15,2013-08-23 10:20:00,
2013-08-23 05:30:00,68.8,66.4,30.00,ESE,109,0.0,0.0,92,0.00,,,0.00,0,Wunderground v.1.15,2013-08-23 10:30:00,
2013-08-23 05:40:00,69.1,66.7,30.00,ESE,109,0.0,0.0,92,0.00,,,0.00,0,Wunderground v.1.15,2013-08-23 10:40:00,
2013-08-23 05:50:00,69.1,66.7,30.01,ESE,109,0.0,0.0,92,0.00,,,0.00,0,Wunderground v.1.15,2013-08-23 10:50:00,
2013-08-23 06:00:00,69.1,66.7,30.01,ESE,109,0.0,0.0,92,0.00,,,0.00,0,Wunderground v.1.15,2013-08-23 11:00:00,
2013-08-23 06:10:00,68.9,66.5,30.00,ESE,109,0.0,0.0,92,0.00,,,0.00,0,Wunderground v.1.15,2013-08-23 11:10:00,
2013-08-23 06:20:00,68.8,66.4,30.00,ESE,109,0.0,0.0,92,0.00,,,0.00,0,Wunderground v.1.15,2013-08-23 11:20:00,
2013-08-23 06:30:00,69.1,66.7,30.00,ESE,109,0.0,0.0,92,0.00,,,0.00,0,Wunderground v.1.15,2013-08-23 11:30:00,
2013-08-23 06:40:00,68.9,66.5,30.01,ESE,109,0.0,0.0,92,0.00,,,0.00,0,Wunderground v.1.15,2013-08-23 11:40:00,
2013-08-23 06:50:00,68.8,66.4,30.01,ESE,109,0.0,0.0,92,0.00,,,0.00,5,Wunderground v.1.15,2013-08-23 11:50:00,
2013-08-23 07:00:00,68.9,66.5,30.01,ESE,109,0.0,0.0,92,0.00,,,0.00,12,Wunderground v.1.15,2013-08-23 12:00:00,
2013-08-23 07:10:00,68.9,66.5,30.01,ESE,109,0.0,0.0,92,0.00,,,0.00,25,Wunderground v.1.15,2013-08-23 12:10:00,
2013-08-23 07:20:00,68.8,66.4,30.01,ESE,109,0.0,0.0,92,0.00,,,0.00,30,Wunderground v.1.15,2013-08-23 12:20:00,
2013-08-23 07:30:00,68.9,66.8,30.01,ESE,109,0.0,0.0,93,0.00,,,0.00,46,Wunderground v.1.15,2013-08-23 12:30:00,
2013-08-23 07:40:00,69.6,67.5,30.02,ESE,110,0.0,0.0,93,0.00,,,0.00,102,Wunderground v.1.15,2013-08-23 12:40:00,
2013-08-23 07:50:00,70.3,67.9,30.01,ESE,110,0.0,0.0,92,0.00,,,0.00,130,Wunderground v.1.15,2013-08-23 12:50:00,
2013-08-23 08:00:00,70.9,68.5,30.01,ESE,110,0.0,0.0,92,0.00,,,0.00,179,Wunderground v.1.15,2013-08-23 13:00:00,
2013-08-23 08:10:00,71.8,69.0,30.02,ESE,110,0.0,0.0,91,0.00,,,0.00,246,Wunderground v.1.15,2013-08-23 13:10:00,
2013-08-23 08:20:00,72.7,69.3,30.02,ESE,110,0.0,0.0,89,0.00,,,0.00,113,Wunderground v.1.15,2013-08-23 13:20:00,
2013-08-23 08:30:00,72.8,69.0,30.02,ESE,110,0.0,0.0,88,0.00,,,0.00,104,Wunderground v.1.15,2013-08-23 13:30:00,
2013-08-23 08:40:00,73.2,69.4,30.03,East,89,0.0,0.0,88,0.00,,,0.00,107,Wunderground v.1.15,2013-08-23 13:40:00,
2013-08-23 08:50:00,73.5,69.7,30.03,East,89,0.0,0.0,88,0.00,,,0.00,97,Wunderground v.1.15,2013-08-23 13:50:00,
2013-08-23 09:00:00,73.9,70.1,30.03,East,89,0.0,0.0,88,0.00,,,0.00,125,Wunderground v.1.15,2013-08-23 14:00:00,
2013-08-23 09:10:00,74.2,70.4,30.03,East,89,0.0,0.0,88,0.00,,,0.00,169,Wunderground v.1.15,2013-08-23 14:10:00,
2013-08-23 09:20:00,75.1,71.0,30.02,East,90,0.0,0.0,87,0.00,,,0.00,304,Wunderground v.1.15,2013-08-23 14:20:00,
2013-08-23 09:30:00,76.0,71.2,30.02,East,91,0.0,0.0,85,0.00,,,0.00,253,Wunderground v.1.15,2013-08-23 14:30:00,
2013-08-23 09:40:00,77.2,71.3,30.02,ESE,105,1.0,1.0,82,0.00,,,0.00,563,Wunderground v.1.15,2013-08-23 14:40:00,
2013-08-23 09:50:00,78.6,71.5,30.02,ESE,107,1.0,1.0,79,0.00,,,0.00,613,Wunderground v.1.15,2013-08-23 14:50:00,
2013-08-23 10:00:00,80.1,72.2,30.02,ESE,123,0.0,0.0,77,0.00,,,0.00,279,Wunderground v.1.15,2013-08-23 15:00:00,
2013-08-23 10:10:00,80.1,71.8,30.01,ESE,117,0.0,0.0,76,0.00,,,0.00,325,Wunderground v.1.15,2013-08-23 15:10:00,
2013-08-23 10:20:00,80.9,71.8,30.01,ESE,121,1.0,1.0,74,0.00,,,0.00,564,Wunderground v.1.15,2013-08-23 15:20:00,
2013-08-23 10:30:00,82.4,72.0,30.01,ESE,117,0.0,0.0,71,0.00,,,0.00,577,Wunderground v.1.15,2013-08-23 15:30:00,
2013-08-23 10:40:00,83.0,71.8,30.01,SSE,154,1.0,1.0,69,0.00,,,0.00,598,Wunderground v.1.15,2013-08-23 15:40:00,
2013-08-23 10:50:00,84.0,71.4,30.01,SE,139,0.0,0.0,66,0.00,,,0.00,592,Wunderground v.1.15,2013-08-23 15:50:00,
2013-08-23 11:00:00,84.9,71.4,30.01,SSE,151,0.0,0.0,64,0.00,,,0.00,649,Wunderground v.1.15,2013-08-23 16:00:00,
2013-08-23 11:10:00,85.5,71.9,30.01,South,170,0.0,0.0,64,0.00,,,0.00,689,Wunderground v.1.15,2013-08-23 16:10:00,
2013-08-23 11:20:00,85.7,72.1,30.00,SW,214,0.0,1.0,64,0.00,,,0.00,687,Wunderground v.1.15,2013-08-23 16:20:00,
2013-08-23 11:30:00,85.9,72.3,30.00,ESE,117,0.0,0.0,64,0.00,,,0.00,729,Wunderground v.1.15,2013-08-23 16:30:00,
2013-08-23 11:40:00,85.9,71.8,30.00,East,97,1.0,9.0,63,0.00,,,0.00,740,Wunderground v.1.15,2013-08-23 16:40:00,
2013-08-23 11:50:00,86.3,72.7,29.99,SSE,153,1.0,1.0,64,0.00,,,0.00,752,Wunderground v.1.15,2013-08-23 16:50:00,
2013-08-23 12:00:00,87.2,72.1,29.99,East,101,0.0,0.0,61,0.00,,,0.00,766,Wunderground v.1.15,2013-08-23 17:00:00,
2013-08-23 12:10:00,87.2,72.6,29.99,ESE,109,1.0,1.0,62,0.00,,,0.00,788,Wunderground v.1.15,2013-08-23 17:10:00,
2013-08-23 12:20:00,87.6,71.0,29.99,SE,141,1.0,1.0,58,0.00,,,0.00,766,Wunderground v.1.15,2013-08-23 17:20:00,
2013-08-23 12:30:00,87.8,71.7,29.99,ESE,107,1.0,4.0,59,0.00,,,0.00,798,Wunderground v.1.15,2013-08-23 17:30:00,
2013-08-23 12:40:00,88.2,72.1,29.98,ESE,107,0.0,0.0,59,0.00,,,0.00,819,Wunderground v.1.15,2013-08-23 17:40:00,
2013-08-23 12:50:00,88.0,71.4,29.97,SSE,166,1.0,1.0,58,0.00,,,0.00,854,Wunderground v.1.15,2013-08-23 17:50:00,
2013-08-23 13:00:00,87.4,71.3,29.97,ESE,105,1.0,11.0,59,0.00,,,0.00,900,Wunderground v.1.15,2013-08-23 18:00:00,
2013-08-23 13:10:00,87.4,71.3,29.97,ESE,107,4.0,4.0,59,0.00,,,0.00,893,Wunderground v.1.15,2013-08-23 18:10:00,
2013-08-23 13:20:00,87.8,70.7,29.97,East,97,1.0,1.0,57,0.00,,,0.00,837,Wunderground v.1.15,2013-08-23 18:20:00,
2013-08-23 13:30:00,88.6,70.4,29.97,SSW,192,1.0,1.0,55,0.00,,,0.00,872,Wunderground v.1.15,2013-08-23 18:30:00,
2013-08-23 13:40:00,88.0,69.3,29.97,ESE,112,4.0,7.0,54,0.00,,,0.00,735,Wunderground v.1.15,2013-08-23 18:40:00,
2013-08-23 13:50:00,88.8,70.5,29.96,SE,126,3.0,3.0,55,0.00,,,0.00,861,Wunderground v.1.15,2013-08-23 18:50:00,
2013-08-23 14:00:00,88.6,69.8,29.96,ESE,118,4.0,5.0,54,0.00,,,0.00,879,Wunderground v.1.15,2013-08-23 19:00:00,
2013-08-23 14:10:00,88.4,70.2,29.96,ESE,105,3.0,10.0,55,0.00,,,0.00,738,Wunderground v.1.15,2013-08-23 19:10:00,
2013-08-23 14:20:00,88.8,70.0,29.96,ESE,110,4.0,4.0,54,0.00,,,0.00,677,Wunderground v.1.15,2013-08-23 19:20:00,
2013-08-23 14:30:00,88.6,68.2,29.96,ESE,112,3.0,4.0,51,0.00,,,0.00,979,Wunderground v.1.15,2013-08-23 19:30:00,
2013-08-23 14:40:00,89.0,67.9,29.96,ESE,109,4.0,8.0,50,0.00,,,0.00,837,Wunderground v.1.15,2013-08-23 19:40:00,
2013-08-23 14:50:00,88.6,67.6,29.96,SSE,157,2.0,3.0,50,0.00,,,0.00,376,Wunderground v.1.15,2013-08-23 19:50:00,
2013-08-23 15:00:00,88.6,68.2,29.96,ESE,110,3.0,3.0,51,0.00,,,0.00,817,Wunderground v.1.15,2013-08-23 20:00:00,
2013-08-23 15:10:00,88.8,68.9,29.95,ESE,110,3.0,5.0,52,0.00,,,0.00,689,Wunderground v.1.15,2013-08-23 20:10:00,
2013-08-23 15:20:00,89.3,68.2,29.95,SSE,165,1.0,1.0,50,0.00,,,0.00,577,Wunderground v.1.15,2013-08-23 20:20:00,
2013-08-23 15:30:00,89.5,68.4,29.95,SE,124,1.0,1.0,50,0.00,,,0.00,670,Wunderground v.1.15,2013-08-23 20:30:00,
2013-08-23 15:40:00,89.0,70.2,29.95,ESE,104,2.0,5.0,54,0.00,,,0.00,696,Wunderground v.1.15,2013-08-23 20:40:00,
2013-08-23 15:50:00,88.8,67.8,29.95,South,175,2.0,2.0,50,0.00,,,0.00,557,Wunderground v.1.15,2013-08-23 20:50:00,
2013-08-23 16:00:00,89.3,68.2,29.95,SW,223,1.0,1.0,50,0.00,,,0.00,731,Wunderground v.1.15,2013-08-23 21:00:00,
2013-08-23 16:10:00,89.7,66.8,29.95,SE,128,0.0,0.0,47,0.00,,,0.00,359,Wunderground v.1.15,2013-08-23 21:10:00,
2013-08-23 16:20:00,89.7,67.4,29.94,SE,140,1.0,2.0,48,0.00,,,0.00,622,Wunderground v.1.15,2013-08-23 21:20:00,
2013-08-23 16:30:00,90.1,68.4,29.94,East,85,1.0,1.0,49,0.00,,,0.00,587,Wunderground v.1.15,2013-08-23 21:30:00,
2013-08-23 16:40:00,89.9,65.7,29.94,ENE,71,1.0,1.0,45,0.00,,,0.00,512,Wunderground v.1.15,2013-08-23 21:40:00,
2013-08-23 17:00:00,88.8,67.8,29.94,SSW,200,1.0,1.0,50,0.00,,,0.00,497,Wunderground v.1.15,2013-08-23 22:00:00,
2013-08-23 17:10:00,89.3,68.2,29.94,East,96,0.0,0.0,50,0.00,,,0.00,464,Wunderground v.1.15,2013-08-23 22:10:00,
2013-08-23 17:30:00,87.4,69.3,29.94,ESE,120,2.0,2.0,55,0.00,,,0.00,353,Wunderground v.1.15,2013-08-23 22:30:00,
2013-08-23 17:40:00,86.7,68.1,29.94,ESE,116,1.0,1.0,54,0.00,,,0.00,272,Wunderground v.1.15,2013-08-23 22:40:00,
2013-08-23 17:50:00,85.9,68.4,29.94,East,101,1.0,1.0,56,0.00,,,0.00,156,Wunderground v.1.15,2013-08-23 22:50:00,
2013-08-23 18:00:00,85.1,68.7,29.94,ESE,107,0.0,0.0,58,0.00,,,0.00,172,Wunderground v.1.15,2013-08-23 23:00:00,
2013-08-23 18:10:00,84.7,69.8,29.94,East,99,1.0,3.0,61,0.00,,,0.00,142,Wunderground v.1.15,2013-08-23 23:10:00,
2013-08-23 18:20:00,84.3,70.3,29.93,East,101,0.0,0.0,63,0.00,,,0.00,135,Wunderground v.1.15,2013-08-23 23:20:00,
2013-08-23 18:30:00,84.1,70.1,29.93,ESE,108,0.0,0.0,63,0.00,,,0.00,200,Wunderground v.1.15,2013-08-23 23:30:00,
2013-08-23 18:40:00,84.3,70.8,29.93,ESE,104,1.0,1.0,64,0.00,,,0.00,237,Wunderground v.1.15,2013-08-23 23:40:00,
2013-08-23 18:50:00,84.5,70.5,29.93,ESE,114,1.0,5.0,63,0.00,,,0.00,227,Wunderground v.1.15,2013-08-23 23:50:00,
2013-08-23 19:00:00,84.5,71.0,29.93,ESE,114,1.0,1.0,64,0.00,,,0.00,144,Wunderground v.1.15,2013-08-24 00:00:00,
2013-08-23 19:10:00,84.1,70.6,29.93,ESE,112,0.0,0.0,64,0.00,,,0.00,97,Wunderground v.1.15,2013-08-24 00:10:00,
2013-08-23 19:20:00,83.6,70.6,29.92,ESE,115,0.0,0.0,65,0.00,,,0.00,84,Wunderground v.1.15,2013-08-24 00:20:00,
2013-08-23 19:30:00,83.0,70.0,29.92,ESE,111,0.0,0.0,65,0.00,,,0.00,58,Wunderground v.1.15,2013-08-24 00:30:00,
2013-08-23 19:40:00,82.4,69.9,29.92,ESE,114,0.0,0.0,66,0.00,,,0.00,35,Wunderground v.1.15,2013-08-24 00:40:00,
2013-08-23 19:50:00,81.8,70.2,29.92,ESE,111,0.0,0.0,68,0.00,,,0.00,21,Wunderground v.1.15,2013-08-24 00:50:00,
2013-08-23 20:00:00,81.2,69.6,29.92,ESE,113,0.0,0.0,68,0.00,,,0.00,9,Wunderground v.1.15,2013-08-24 01:00:00,
2013-08-23 20:10:00,80.5,69.4,29.92,ESE,113,0.0,0.0,69,0.00,,,0.00,0,Wunderground v.1.15,2013-08-24 01:10:00,
2013-08-23 20:20:00,80.1,69.4,29.91,ESE,112,0.0,0.0,70,0.00,,,0.00,0,Wunderground v.1.15,2013-08-24 01:20:00,
2013-08-23 20:30:00,79.6,69.4,29.91,ESE,113,0.0,0.0,71,0.00,,,0.00,0,Wunderground v.1.15,2013-08-24 01:30:00,
2013-08-23 20:40:00,78.8,69.0,29.92,ESE,113,0.0,0.0,72,0.00,,,0.00,0,Wunderground v.1.15,2013-08-24 01:40:00,
2013-08-23 20:50:00,78.3,69.3,29.92,ESE,113,0.0,0.0,74,0.00,,,0.00,0,Wunderground v.1.15,2013-08-24 01:50:00,
2013-08-23 21:00:00,77.6,69.4,29.92,ESE,113,0.0,0.0,76,0.00,,,0.00,0,Wunderground v.1.15,2013-08-24 02:00:00,
2013-08-23 21:10:00,77.6,69.4,29.93,ESE,115,0.0,0.0,76,0.00,,,0.00,0,Wunderground v.1.15,2013-08-24 02:10:00,
2013-08-23 21:20:00,77.4,69.2,29.92,ESE,115,0.0,0.0,76,0.00,,,0.00,0,Wunderground v.1.15,2013-08-24 02:20:00,
2013-08-23 21:30:00,77.2,69.4,29.92,ESE,115,0.0,0.0,77,0.00,,,0.00,0,Wunderground v.1.15,2013-08-24 02:30:00,
2013-08-23 21:40:00,76.7,69.3,29.93,ESE,115,0.0,0.0,78,0.00,,,0.00,0,Wunderground v.1.15,2013-08-24 02:40:00,
2013-08-23 21:50:00,76.5,69.5,29.93,ESE,115,0.0,0.0,79,0.00,,,0.00,0,Wunderground v.1.15,2013-08-24 02:50:00,
2013-08-23 22:00:00,76.1,69.5,29.93,ESE,115,0.0,0.0,80,0.00,,,0.00,0,Wunderground v.1.15,2013-08-24 03:00:00,
2013-08-23 22:10:00,76.0,69.7,29.93,ESE,115,0.0,0.0,81,0.00,,,0.00,0,Wunderground v.1.15,2013-08-24 03:10:00,
2013-08-23 22:20:00,75.6,69.4,29.94,ESE,115,0.0,0.0,81,0.00,,,0.00,0,Wunderground v.1.15,2013-08-24 03:20:00,
2013-08-23 22:30:00,75.4,69.5,29.94,ESE,115,0.0,0.0,82,0.00,,,0.00,0,Wunderground v.1.15,2013-08-24 03:30:00,
2013-08-23 22:40:00,75.4,69.5,29.94,ESE,115,0.0,0.0,82,0.00,,,0.00,0,Wunderground v.1.15,2013-08-24 03:40:00,
2013-08-23 22:50:00,75.4,69.5,29.94,ESE,115,0.0,0.0,82,0.00,,,0.00,0,Wunderground v.1.15,2013-08-24 03:50:00,
2013-08-23 23:00:00,75.4,69.5,29.94,ESE,115,0.0,0.0,82,0.00,,,0.00,0,Wunderground v.1.15,2013-08-24 04:00:00,
2013-08-23 23:10:00,75.6,69.4,29.94,ESE,115,0.0,0.0,81,0.00,,,0.00,0,Wunderground v.1.15,2013-08-24 04:10:00,
2013-08-23 23:20:00,75.6,69.4,29.94,ESE,115,0.0,0.0,81,0.00,,,0.00,0,Wunderground v.1.15,2013-08-24 04:20:00,
2013-08-23 23:30:00,76.0,69.4,29.94,ESE,115,0.0,0.0,80,0.00,,,0.00,0,Wunderground v.1.15,2013-08-24 04:30:00,
2013-08-23 23:40:00,76.1,69.1,29.94,ESE,115,0.0,0.0,79,0.00,,,0.00,0,Wunderground v.1.15,2013-08-24 04:40:00,
2013-08-23 23:50:00,76.1,69.1,29.94,ESE,115,0.0,0.0,79,0.00,,,0.00,0,Wunderground v.1.15,2013-08-24 04:50:00,